Location: Drocourt
(49.0571°N, 1.7669°E)
Time: 20:27:33
(UTC+00:00)

Transit 4A - Pass Details

Date: 13 April 2024
Orbit: 871 x 971 km, 66.8° (Epoch: 18 May)

Event Time Altitude Azimuth Distance (km) Brightness Sun altitude
Rises 12:18:16 0° 147° (SSE) 3,541 11.4 49.9°
Reaches altitude 10° 12:24:05 10° 103° (ESE) 2,575 10.4 49.8°
Maximum altitude 12:24:21 10° 100° (E) 2,572 10.3 49.8°
Drops below altitude 10° 12:24:36 10° 98° (E) 2,573 10.3 49.7°
Sets 12:30:21 0° 53° (NE) 3,495 10.6 49.5°
